FW6216 Weather Reports


Display with metric or nautical units.
time (UTC)temp
F
wind
direction
speed
MPH
gust
MPH
rain 1hr
in
rain 24hr
in
rain mn
in
humidity
%
barometer
mb
20260503220036 81 16 6.0 15.0 0.00 0.00 0.00 31 1014.2
20260503214606 81 11 6.0 15.0 0.00 0.00 0.00 31 1014.4
20260503210033 81 33 6.0 13.0 0.00 0.00 0.00 33 1014.9
20260503204529 82 20 7.0 16.0 0.00 0.00 0.00 32 1015.0
20260503203032 83 24 8.0 14.0 0.00 0.00 0.00 32 1015.1
20260503201532 83 15 5.0 13.0 0.00 0.00 0.00 33 1015.3
20260503200149 82 27 5.0 14.0 0.00 0.00 0.00 33 1015.6
20260503194529 82 26 5.0 13.0 0.00 0.00 0.00 33 1015.7
20260503193031 82 35 6.0 12.0 0.00 0.00 0.00 34 1015.9
20260503190030 81 5 4.0 12.0 0.00 0.00 0.00 35 1016.2
20260503184529 81 20 5.0 11.0 0.00 0.00 0.00 35 1016.3
20260503181529 78 356 4.0 8.0 0.00 0.00 0.00 38 1016.5
20260503180030 77 10 5.0 10.0 0.00 0.00 0.00 38 1016.6
20260503174536 77 11 4.0 9.0 0.00 0.00 0.00 38 1016.7
20260503173037 78 1 4.0 9.0 0.00 0.00 0.00 37 1016.7
20260503171536 79 5 4.0 9.0 0.00 0.00 0.00 37 1016.8
20260503170152 78 357 4.0 7.0 0.00 0.00 0.00 37 1016.7
20260503140108 56 45 0.0 0.0 0.00 0.00 0.00 66 1017.0
20260503081534 58 220 1.0 3.0 0.00 0.00 0.00 60 1016.7
20260503054534 64 46 0.0 2.0 0.00 0.00 0.00 51 1016.3
20260503053032 64 152 2.0 5.0 0.00 0.00 0.00 51 1016.4
20260503050141 68 233 3.0 10.0 0.00 0.00 0.00 46 1016.3
20260503043031 68 221 5.0 11.0 0.00 0.00 0.00 46 1016.2
20260503041607 68 213 5.0 9.0 0.00 0.00 0.00 45 1016.2
20260503040040 69 201 8.0 12.0 0.00 0.00 0.00 45 1016.2
20260503034531 69 192 8.0 13.0 0.00 0.00 0.00 45 1016.1
20260503033035 69 182 6.0 9.0 0.00 0.00 0.00 46 1015.9
20260503024529 70 161 3.0 6.0 0.00 0.00 0.00 46 1015.0
20260503023108 70 81 0.0 3.0 0.00 0.00 0.00 45 1014.7
20260503021529 71 336 1.0 4.0 0.00 0.00 0.00 45 1014.5
20260503020038 72 293 2.0 4.0 0.00 0.00 0.00 45 1014.4
20260503014529 73 343 2.0 4.0 0.00 0.00 0.00 43 1014.4
20260503011536 75 2 3.0 8.0 0.00 0.00 0.00 40 1014.3
20260503004606 76 28 7.0 14.0 0.00 0.00 0.00 38 1014.4
20260503003035 76 26 8.0 15.0 0.00 0.00 0.00 38 1014.3
20260503001534 77 22 8.0 14.0 0.00 0.00 0.00 38 1014.4
20260502234534 78 8 6.0 12.0 0.00 0.00 0.00 38 1014.7
20260502233212 78 4 7.0 17.0 0.00 0.00 0.00 37 1014.8
20260502231537 78 27 8.0 15.0 0.00 0.00 0.00 37 1014.8
20260502230040 78 3 7.0 15.0 0.00 0.00 0.00 40 1015.0
20260502224533 77 10 6.0 13.0 0.00 0.00 0.00 40 1015.2
20260502223031 77 12 7.0 14.0 0.00 0.00 0.00 40 1015.4
20260502221530 78 351 8.0 16.0 0.00 0.00 0.00 41 1015.6